Skip Page Navigation
NASA JPL Caltech
NASA Logo - Jet Propulsion Laboratory + View the NASA Portal
+ Center for Near-Earth Object Studies
JPL Home Earth Solar System Stars & Galaxies Technology
JPL Solar System Dynamics
BODIES ORBITS EPHEMERIDES TOOLS PHYSICAL DATA DISCOVERY FAQ SITE MAP
IMPORTANT: The SSD Announcement email list is now available. Major changes are coming in the near future, including possible hostname and/or URL changes. To be notified of such changes, subscribe to this email list.

Please visit this page for more details.


JPL Small-Body Database Browser
Search: [ help ]  
26508 Jimmylin (2000 CD29)
Classification: Main-belt Asteroid          SPK-ID: 2026508
Ephemeris | Orbit Diagram | Orbital Elements | Mission Design | Physical Parameters | Discovery Circumstances | Close-Approach Data ]

[ show orbit diagram ]
Orbital Elements at Epoch 2458600.5 (2019-Apr-27.0) TDB
Reference: JPL 17 (heliocentric ecliptic J2000)
 Element Value Uncertainty (1-sigma)   Units 
e .1752359729267488 3.0987e-08  
a 2.387485832310003 9.6431e-09 au
q 1.969112429636331 7.5199e-08 au
i 1.442481556444695 3.8723e-06 deg
node 254.701741560876 0.00020653 deg
peri 13.607477445769 0.00020713 deg
M 331.075859325539 1.5387e-05 deg
tp 2458708.759893578110
(2019-Aug-13.25989358)
5.753e-05 TDB
period 1347.440607718104
3.69
8.1635e-06
2.235e-08
d
yr
n .2671731859184959 1.6187e-09 deg/d
Q 2.805859234983676 1.1333e-08 au
  Orbit Determination Parameters
   # obs. used (total)      909  
   data-arc span      9545 days (26.13 yr)  
   first obs. used      1993-03-26  
   last obs. used      2019-05-14  
   planetary ephem.      DE431  
   SB-pert. ephem.      SB431-N16  
   condition code      0  
   norm. resid. RMS      .54705  
   source      ORB  
   producer      Otto Matic  
   solution date      2019-May-30 03:25:06  

Additional Information
 Earth MOID = .952668 au 
 Jupiter MOID = 2.28336 au 
 T_jup = 3.513 
[ show covariance matrix ]

Ephemeris | Orbit Diagram | Orbital Elements | Mission Design | Physical Parameters | Discovery Circumstances | Close-Approach Data ]

Physical Parameter Table
Parameter Symbol Value Units Sigma Reference Notes
absolute magnitude H 15.5   n/a MPO431807  

26508 Jimmylin           Discovered 2000 Feb. 2 by the Lincoln Laboratory Near-Earth Asteroid Research Team at Socorro.
Jimmy Lin (b. 1994) was awarded second place in the 2010 Intel International Science and Engineering Fair for his environomental-management team project. He attends the Robert Louis Stevenson Upper School, Pebble Beach, California, U.S.A.
NOTE: some special characters may not display properly (any characters within {} are an attempt to place the proper accent above a character)
Reference: 20110319/MPCPages.arcLast Updated: 2011-03-23

[ show close-approach data ]
Ephemeris | Orbit Diagram | Orbital Elements | Mission Design | Physical Parameters | Discovery Circumstances | Close-Approach Data ]
ABOUT SSD CREDITS/AWARDS PRIVACY/COPYRIGHT GLOSSARY LINKS
FirstGov
(server date/time)  
NASA Home Page
Site Manager:   Ryan S. Park
Webmaster  Alan B. Chamberlin